This is the latest recevied weather packets stored in our database for station/object 4S6DRJ-13. If no packets are shown the sender has not sent any weather packets the latest 10 day(s).
| Time | Temp. | Humidity | Pressure | Rain* | Wind** | Luminosity | Snow |
|---|---|---|---|---|---|---|---|
| 1788430774 | 30° C | 72% | 1007.5 hPa | 0 mm | 1.79 m/s, 241° | 234 W/m² | - |
| 1788430712 | 30° C | 72% | 1007.5 hPa | 0 mm | 3.13 m/s, 257° | 230 W/m² | - |
| 1788430651 | 30.56° C | 72% | 1007.3 hPa | 0 mm | 2.24 m/s, 291° | 246 W/m² | - |
| 1788430590 | 30.56° C | 72% | 1007.6 hPa | 0 mm | 1.79 m/s, 308° | 249 W/m² | - |
| 1788430529 | 30.56° C | 72% | 1007.4 hPa | 0 mm | 1.79 m/s, 223° | 262 W/m² | - |
| 1788430468 | 30.56° C | 72% | 1007.3 hPa | 0 mm | 1.34 m/s, 207° | 279 W/m² | - |
| 1788430407 | 30.56° C | 72% | 1007.2 hPa | 0 mm | 1.34 m/s, 283° | 289 W/m² | - |
| 1788430346 | 30.56° C | 72% | 1007.4 hPa | 0 mm | 2.68 m/s, 7° | 310 W/m² | - |
| 1788430285 | 30.56° C | 72% | 1007.5 hPa | 0 mm | 1.79 m/s, 192° | 332 W/m² | - |
| 1788430224 | 30.56° C | 73% | 1007.3 hPa | 0 mm | 1.34 m/s, 201° | 353 W/m² | - |
| 1788430163 | 30.56° C | 72% | 1007.4 hPa | 0 mm | 0.89 m/s, 270° | 350 W/m² | - |
| 1788430102 | 30.56° C | 72% | 1007.4 hPa | 0 mm | 2.24 m/s, 244° | 335 W/m² | - |
| 1788430041 | 30.56° C | 71% | 1007.2 hPa | 0 mm | 1.79 m/s, 251° | 419 W/m² | - |
| 1788429980 | 31.11° C | 70% | 1007.3 hPa | 0 mm | 1.79 m/s, 205° | 450 W/m² | - |
| 1788429919 | 31.11° C | 69% | 1007 hPa | 0 mm | 2.24 m/s, 34° | 386 W/m² | - |
| 1788429858 | 31.11° C | 68% | 1007.2 hPa | 0 mm | 2.68 m/s, 195° | 446 W/m² | - |
| 1788429797 | 31.11° C | 68% | 1007.1 hPa | 0 mm | 1.34 m/s, 187° | 394 W/m² | - |
| 1788429737 | 31.11° C | 70% | 1007.1 hPa | 0 mm | 0.89 m/s, 174° | 522 W/m² | - |
| 1788429675 | 31.11° C | 71% | 1007.2 hPa | 0 mm | 0 m/s | 528 W/m² | - |
| 1788429614 | 31.11° C | 71% | 1007 hPa | 0 mm | 0.45 m/s, 97° | 365 W/m² | - |
| 1788429553 | 31.11° C | 71% | 1007.2 hPa | 0 mm | 0.89 m/s, 315° | 507 W/m² | - |
| 1788429492 | 31.11° C | 71% | 1007.1 hPa | 0 mm | 0.89 m/s, 270° | 606 W/m² | - |
| 1788429431 | 31.11° C | 70% | 1007.1 hPa | 0 mm | 1.79 m/s, 212° | 616 W/m² | - |
| 1788429370 | 31.11° C | 71% | 1007.2 hPa | 0 mm | 2.68 m/s, 189° | 618 W/m² | - |
| 1788429309 | 31.11° C | 71% | 1007.1 hPa | 0 mm | 1.34 m/s, 204° | 595 W/m² | - |
* Rain latest hour (hover to see other rain measurements)
** Current wind speed in m/s (hover to see current wind gust speed)